GW2484 Weather Reports


time (UTC)temp
F
wind
direction
speed
knots
gust
knots
rain 1hr
in
rain 24hr
in
rain mn
in
humidity
%
barometer
mb
20260507105506 44 324 0.0 0.0 0.00 0.00 0.00 85 1019.1
20260507105010 44 324 0.0 0.0 0.00 0.00 0.00 85 1019.1
20260507104525 44 324 0.0 0.0 0.00 0.00 0.00 85 1019.1
20260507104004 44 324 0.0 0.0 0.00 0.00 0.00 85 1019.1
20260507103507 44 324 0.0 0.0 0.00 0.00 0.00 84 1019.0
20260507103022 44 324 0.0 0.0 0.00 0.00 0.00 84 1019.0
20260507102503 44 324 0.0 0.0 0.00 0.00 0.00 84 1019.1
20260507102012 44 324 0.0 0.0 0.00 0.00 0.00 83 1019.1
20260507101511 44 324 0.0 0.0 0.00 0.00 0.00 83 1019.0
20260507101011 44 324 0.0 0.0 0.00 0.00 0.00 83 1019.1
20260507100506 45 324 0.0 0.0 0.00 0.00 0.00 83 1019.1
20260507100024 45 324 0.0 0.0 0.00 0.00 0.00 82 1019.0
20260507095510 45 324 0.0 0.0 0.00 0.00 0.00 82 1018.9
20260507095014 45 324 0.0 0.0 0.00 0.00 0.00 82 1019.0
20260507094508 45 324 0.0 0.0 0.00 0.00 0.00 82 1018.8
20260507094007 45 324 0.0 0.0 0.00 0.00 0.00 81 1018.7
20260507093507 45 324 0.0 0.0 0.00 0.00 0.00 81 1018.8
20260507093031 46 324 0.0 1.7 0.00 0.00 0.00 81 1018.9
20260507092509 46 324 0.0 1.7 0.00 0.00 0.00 81 1018.9
20260507092003 46 324 0.0 1.7 0.00 0.00 0.00 81 1019.0
20260507091546 46 324 0.0 1.7 0.00 0.00 0.00 81 1018.9
20260507091011 46 324 0.0 1.7 0.00 0.00 0.00 81 1019.0
20260507090504 46 324 0.9 1.7 0.00 0.00 0.00 80 1019.0
20260507090023 46 324 0.0 1.7 0.00 0.00 0.00 81 1018.8
20260507085506 46 324 0.0 1.7 0.00 0.00 0.00 81 1019.0
20260507085009 46 324 0.0 2.6 0.00 0.00 0.00 81 1019.1
20260507084517 46 324 0.0 2.6 0.00 0.00 0.00 81 1019.1
20260507084003 46 325 0.0 2.6 0.00 0.00 0.00 81 1019.1
20260507083506 46 326 0.9 2.6 0.00 0.00 0.00 81 1019.2
20260507083020 46 347 0.9 1.7 0.00 0.00 0.00 80 1019.0
20260507082508 46 348 0.0 0.0 0.00 0.00 0.00 80 1019.0
20260507082011 46 348 0.0 0.0 0.00 0.00 0.00 80 1018.9
20260507081513 46 348 0.0 0.0 0.00 0.00 0.00 79 1019.0
20260507081009 46 348 0.0 1.7 0.00 0.00 0.00 79 1018.9
20260507080512 46 348 0.0 1.7 0.00 0.00 0.00 78 1018.9
20260507080010 47 348 0.0 0.0 0.00 0.00 0.00 78 1019.0
20260507075507 47 348 0.0 0.0 0.00 0.00 0.00 77 1018.9
20260507075012 47 348 0.0 0.0 0.00 0.00 0.00 77 1019.0
20260507074531 47 348 0.0 0.0 0.00 0.00 0.00 76 1019.1
20260507074007 47 348 0.0 0.0 0.00 0.00 0.00 76 1019.1
20260507073508 48 348 0.0 0.0 0.00 0.00 0.00 75 1019.1
20260507073026 48 348 0.0 0.0 0.00 0.00 0.00 75 1019.2
20260507072509 48 348 0.0 1.7 0.00 0.00 0.00 75 1019.1
20260507072009 48 348 0.0 1.7 0.00 0.00 0.00 74 1019.1
20260507071523 49 348 0.0 1.7 0.00 0.00 0.00 74 1019.3
20260507071008 49 348 0.0 1.7 0.00 0.00 0.00 73 1019.4
20260507070509 49 348 0.0 1.7 0.00 0.00 0.00 73 1019.4
20260507070024 49 348 0.0 1.7 0.00 0.00 0.00 72 1019.3
20260507065504 49 348 0.0 1.7 0.00 0.00 0.00 72 1019.5
20260507065008 49 348 0.0 1.7 0.00 0.00 0.00 71 1019.4
20260507064526 49 348 0.0 1.7 0.00 0.00 0.00 71 1019.5
20260507064007 50 348 0.0 1.7 0.00 0.00 0.00 71 1019.6
20260507063511 50 348 0.9 1.7 0.00 0.00 0.00 71 1019.6
20260507063021 50 348 0.9 1.7 0.00 0.00 0.00 70 1019.6
20260507062512 50 348 0.9 1.7 0.00 0.00 0.00 70 1019.5
20260507062011 50 348 0.9 1.7 0.00 0.00 0.00 69 1019.4
20260507061528 50 348 0.9 1.7 0.00 0.00 0.00 69 1019.4
20260507061003 50 354 0.9 1.7 0.00 0.00 0.00 68 1019.3
20260507060503 51 354 0.0 1.7 0.00 0.00 0.00 68 1019.3
20260507060026 51 354 0.0 1.7 0.00 0.00 0.00 67 1019.1
20260507055503 51 354 0.9 1.7 0.00 0.00 0.00 67 1019.1
20260507055006 51 354 0.0 1.7 0.00 0.00 0.00 66 1019.0
20260507054511 51 354 0.9 3.5 0.00 0.00 0.00 66 1018.9
20260507054002 51 327 0.0 3.5 0.00 0.00 0.00 66 1019.2
20260507053506 51 325 1.7 2.6 0.00 0.00 0.00 66 1019.2
20260507053011 51 36 0.9 1.7 0.00 0.00 0.00 65 1018.9
20260507052502 51 36 0.0 1.7 0.00 0.00 0.00 65 1018.9
20260507052006 52 36 0.0 1.7 0.00 0.00 0.00 64 1018.9
20260507051504 52 36 0.0 1.7 0.00 0.00 0.00 64 1018.8
20260507051010 52 36 0.0 1.7 0.00 0.00 0.00 64 1018.8
20260507050506 52 36 0.0 1.7 0.00 0.00 0.00 63 1018.9
20260507050031 52 36 0.0 1.7 0.00 0.00 0.00 63 1018.8
20260507045506 52 36 0.9 2.6 0.00 0.00 0.00 62 1018.7
20260507045006 52 36 0.9 2.6 0.00 0.00 0.00 62 1018.8
20260507044503 53 38 0.9 2.6 0.00 0.00 0.00 63 1018.8
20260507044014 53 39 0.9 2.6 0.00 0.00 0.00 62 1018.8
20260507043503 53 39 0.0 1.7 0.00 0.00 0.00 62 1018.8
20260507043020 53 39 0.0 1.7 0.00 0.00 0.00 61 1018.7
20260507042511 53 39 0.0 2.6 0.00 0.00 0.00 61 1018.7
20260507042002 54 39 0.9 2.6 0.00 0.00 0.00 61 1018.7
20260507041516 54 38 0.0 2.6 0.00 0.00 0.00 61 1018.7
20260507041010 54 38 0.9 3.5 0.00 0.00 0.00 61 1018.7
20260507040511 54 24 1.7 3.5 0.00 0.00 0.00 61 1018.7
20260507040030 54 26 0.0 3.5 0.00 0.00 0.00 61 1018.8
20260507035503 54 25 0.9 3.5 0.00 0.00 0.00 61 1018.8
20260507035007 54 35 0.0 2.6 0.00 0.00 0.00 61 1018.8
20260507034526 54 35 0.9 3.5 0.00 0.00 0.00 61 1018.7
20260507034004 54 34 0.9 3.5 0.00 0.00 0.00 60 1018.7
20260507033506 54 36 0.0 3.5 0.00 0.00 0.00 60 1018.8
20260507033010 54 38 0.9 3.5 0.00 0.00 0.00 60 1018.6
20260507032504 54 34 0.0 3.5 0.00 0.00 0.00 60 1018.5
20260507032008 55 34 0.9 3.5 0.00 0.00 0.00 60 1018.5
20260507031508 55 32 0.0 3.5 0.00 0.00 0.00 60 1018.5
20260507031011 55 31 0.9 3.5 0.00 0.00 0.00 59 1018.4
20260507030508 55 57 0.9 1.7 0.00 0.00 0.00 59 1018.3
20260507030008 55 58 0.0 1.7 0.00 0.00 0.00 58 1018.4
20260507025508 55 58 0.0 2.6 0.00 0.00 0.00 58 1018.4
20260507025003 55 58 0.0 2.6 0.00 0.00 0.00 58 1018.3
20260507024504 55 35 0.9 1.7 0.00 0.00 0.00 59 1018.2
20260507024007 55 356 0.9 1.7 0.00 0.00 0.00 59 1018.1
20260507023503 56 1 0.0 2.6 0.00 0.00 0.00 59 1018.1
20260507023025 56 22 0.9 2.6 0.00 0.00 0.00 59 1018.1
20260507022506 56 17 0.0 1.7 0.00 0.00 0.00 58 1018.0
20260507022004 56 38 0.9 1.7 0.00 0.00 0.00 58 1018.0
20260507021520 56 38 0.0 1.7 0.00 0.00 0.00 57 1018.0
20260507021007 56 23 0.0 0.0 0.00 0.00 0.00 56 1018.0
20260507020507 57 23 0.0 0.0 0.00 0.00 0.00 56 1017.9
20260507020018 57 23 0.0 0.0 0.00 0.00 0.00 55 1017.8
20260507015504 57 23 0.0 1.7 0.00 0.00 0.00 55 1017.7
20260507015014 57 23 0.0 2.6 0.00 0.00 0.00 55 1017.6
20260507014516 58 23 0.0 2.6 0.00 0.00 0.00 54 1017.5
20260507014003 58 37 0.9 2.6 0.00 0.00 0.00 53 1017.5
20260507013508 58 38 0.9 2.6 0.00 0.00 0.00 53 1017.4
20260507013016 59 31 0.0 5.2 0.00 0.00 0.00 52 1017.3
20260507012514 59 31 1.7 5.2 0.00 0.00 0.00 52 1017.2
20260507012007 59 21 0.9 5.2 0.00 0.00 0.00 51 1017.1
20260507011508 59 19 1.7 5.2 0.00 0.00 0.00 52 1017.1
20260507011010 59 49 0.9 3.5 0.00 0.00 0.00 51 1017.0
20260507010506 60 41 1.7 3.5 0.00 0.00 0.00 51 1017.0
20260507010009 60 48 0.9 6.1 0.00 0.00 0.00 50 1017.0
20260507005517 60 21 0.9 6.1 0.00 0.00 0.00 49 1016.9
20260507005006 60 31 0.9 6.1 0.00 0.00 0.00 50 1016.9
20260507004524 60 17 0.9 7.0 0.00 0.00 0.00 49 1016.9
20260507004008 61 53 2.6 8.7 0.00 0.00 0.00 48 1016.8
20260507003511 61 36 3.5 8.7 0.00 0.00 0.00 48 1016.8
20260507003024 61 19 3.5 7.8 0.00 0.00 0.00 47 1016.8
20260507002508 61 20 3.5 10.4 0.00 0.00 0.00 47 1016.7
20260507002004 61 46 4.3 10.4 0.00 0.00 0.00 46 1016.7
20260507001521 62 40 4.3 8.7 0.00 0.00 0.00 47 1016.6
20260507001008 62 48 4.3 9.6 0.00 0.00 0.00 47 1016.6
20260507000507 62 50 5.2 9.6 0.00 0.00 0.00 47 1016.5
20260507000026 62 48 2.6 9.6 0.00 0.00 0.00 47 1016.5
20260506235507 62 37 2.6 7.8 0.00 0.00 0.00 48 1016.5
20260506235010 62 32 2.6 8.7 0.00 0.00 0.00 47 1016.5
20260506234518 62 33 2.6 10.4 0.00 0.00 0.00 47 1016.5
20260506234006 62 26 5.2 10.4 0.00 0.00 0.00 47 1016.3
20260506233510 62 25 5.2 9.6 0.00 0.00 0.00 48 1016.4
20260506233013 62 30 5.2 9.6 0.00 0.00 0.00 48 1016.4
20260506232511 63 34 2.6 8.7 0.00 0.00 0.00 48 1016.4
20260506232011 63 71 4.3 8.7 0.00 0.00 0.00 49 1016.3
20260506231513 63 85 3.5 7.0 0.00 0.00 0.00 48 1016.3
20260506231009 63 56 2.6 13.0 0.00 0.00 0.00 47 1016.2
20260506230510 63 49 3.5 12.2 0.00 0.00 0.00 47 1016.2
20260506230009 63 23 4.3 9.6 0.00 0.00 0.00 48 1016.1
20260506225507 63 30 3.5 12.2 0.00 0.00 0.00 47 1016.1
20260506225009 63 33 6.1 12.2 0.00 0.00 0.00 48 1016.1
20260506224530 64 35 4.3 10.4 0.00 0.00 0.00 47 1016.1
20260506224007 64 50 3.5 9.6 0.00 0.00 0.00 47 1016.0
20260506223506 64 327 0.9 10.4 0.00 0.00 0.00 47 1015.9
20260506223024 64 357 4.3 11.3 0.00 0.00 0.00 46 1015.9
20260506222512 65 36 3.5 13.0 0.00 0.00 0.00 45 1015.8
20260506222011 65 354 5.2 13.0 0.00 0.00 0.00 47 1015.7
20260506221526 65 318 3.5 13.0 0.00 0.00 0.00 47 1015.7
20260506221008 65 82 4.3 9.6 0.00 0.00 0.00 45 1015.7
20260506220508 65 311 3.5 10.4 0.00 0.00 0.00 46 1015.7
20260506220029 63 32 4.3 10.4 0.00 0.00 0.00 50 1015.7
20260506215505 63 50 5.2 10.4 0.00 0.00 0.00 48 1015.7
20260506215009 63 31 3.5 13.0 0.00 0.00 0.00 48 1015.7
20260506214522 64 36 7.8 13.0 0.00 0.00 0.00 47 1015.6
20260506214009 64 26 6.1 11.3 0.00 0.00 0.00 47 1015.6
20260506213510 64 289 3.5 13.9 0.00 0.00 0.00 47 1015.5
20260506213019 64 36 7.0 13.9 0.00 0.00 0.00 46 1015.6
20260506212510 65 307 5.2 13.0 0.00 0.00 0.00 45 1015.7
20260506212010 64 58 7.0 13.0 0.00 0.00 0.00 48 1015.7
20260506211515 63 40 5.2 10.4 0.00 0.00 0.00 49 1015.7
20260506211009 64 12 5.2 9.6 0.00 0.00 0.00 49 1015.7
20260506210508 64 21 4.3 13.9 0.00 0.00 0.00 49 1015.6
20260506210029 65 330 3.5 13.9 0.00 0.00 0.00 51 1015.7
20260506205509 64 49 3.5 13.0 0.00 0.00 0.00 52 1015.7
20260506205008 63 33 6.1 13.0 0.00 0.00 0.00 50 1015.9
20260506204523 63 12 4.3 12.2 0.00 0.00 0.00 51 1016.0
20260506204007 63 23 7.0 11.3 0.00 0.00 0.00 52 1016.0
20260506203507 63 7 5.2 10.4 0.00 0.00 0.00 51 1016.1
20260506203009 63 63 7.0 10.4 0.00 0.00 0.00 51 1016.2
20260506202504 63 63 3.5 7.8 0.00 0.00 0.00 51 1016.2
20260506202007 63 60 4.3 8.7 0.00 0.00 0.00 50 1016.3
20260506201508 63 66 3.5 8.7 0.00 0.00 0.00 52 1016.3
20260506201008 64 79 3.5 10.4 0.00 0.00 0.00 50 1016.3
20260506200506 64 23 3.5 10.4 0.00 0.00 0.00 51 1016.5
20260506200005 63 15 2.6 9.6 0.00 0.00 0.00 53 1016.5
20260506195507 62 46 5.2 9.6 0.00 0.00 0.00 52 1016.5
20260506195003 63 69 3.5 12.2 0.00 0.00 0.00 52 1016.4
20260506194505 63 29 7.0 12.2 0.00 0.00 0.00 51 1016.4
20260506194012 64 48 5.2 13.0 0.00 0.00 0.00 51 1016.4
20260506193503 63 65 6.1 13.0 0.00 0.00 0.00 55 1016.3
20260506193020 64 13 7.0 11.3 0.00 0.00 0.00 50 1016.4
20260506192509 64 18 3.5 11.3 0.00 0.00 0.00 51 1016.4
20260506192003 64 23 7.8 13.0 0.00 0.00 0.00 50 1016.6
20260506191520 64 88 6.1 13.0 0.00 0.00 0.00 53 1016.8
20260506191004 63 101 5.2 10.4 0.00 0.00 0.00 54 1016.9
20260506190503 63 88 6.1 11.3 0.00 0.00 0.00 52 1017.0
20260506190018 62 42 5.2 11.3 0.00 0.00 0.00 51 1017.2
20260506185505 63 17 7.8 11.3 0.00 0.00 0.00 53 1017.1
20260506185008 62 43 6.1 11.3 0.00 0.00 0.00 51 1017.2
20260506184516 63 71 5.2 11.3 0.00 0.00 0.00 51 1017.2
20260506184005 63 49 4.3 13.0 0.00 0.00 0.00 52 1017.1
20260506183509 63 18 1.7 13.0 0.00 0.00 0.00 53 1017.2
20260506183018 64 31 6.1 12.2 0.00 0.00 0.00 52 1017.4
20260506182506 64 27 5.2 10.4 0.00 0.00 0.00 53 1017.3
20260506182011 64 22 4.3 11.3 0.00 0.00 0.00 52 1017.4
20260506181510 63 15 5.2 13.0 0.00 0.00 0.00 53 1017.4
20260506181011 62 96 6.1 13.0 0.00 0.00 0.00 53 1017.5
20260506180506 63 27 7.8 13.0 0.00 0.00 0.00 51 1017.6
20260506180006 63 39 7.0 13.9 0.00 0.00 0.00 51 1017.5
20260506175506 63 19 5.2 13.9 0.00 0.00 0.00 52 1017.6
20260506175003 62 26 4.3 14.8 0.00 0.00 0.00 54 1017.6
20260506174505 63 32 7.8 14.8 0.00 0.00 0.00 52 1017.8
20260506174008 63 44 7.0 13.0 0.00 0.00 0.00 52 1017.9
20260506173508 63 341 4.3 13.0 0.00 0.00 0.00 54 1017.8
20260506173021 62 19 7.0 16.5 0.00 0.00 0.00 49 1018.0
20260506172506 62 63 7.8 16.5 0.00 0.00 0.00 53 1018.2
20260506172005 61 20 10.4 16.5 0.00 0.00 0.00 52 1018.5
20260506171520 61 52 8.7 13.0 0.00 0.00 0.00 52 1018.6
20260506171005 61 50 6.1 11.3 0.00 0.00 0.00 52 1018.6
20260506170504 61 73 5.2 11.3 0.00 0.00 0.00 53 1018.8
20260506170021 61 88 5.2 9.6 0.00 0.00 0.00 52 1018.9
20260506165508 61 39 4.3 13.0 0.00 0.00 0.00 56 1019.1
20260506165010 60 40 4.3 13.0 0.00 0.00 0.00 56 1019.0
20260506164516 60 35 2.6 13.0 0.00 0.00 0.00 57 1019.0
20260506164007 60 21 6.1 10.4 0.00 0.00 0.00 56 1018.9
20260506163511 60 19 3.5 10.4 0.00 0.00 0.00 55 1018.7
20260506163030 60 45 3.5 12.2 0.00 0.00 0.00 56 1018.6
20260506162507 60 33 4.3 12.2 0.00 0.00 0.00 57 1018.4
20260506162011 60 354 5.2 12.2 0.00 0.00 0.00 57 1018.4
20260506161511 59 97 7.0 15.6 0.00 0.00 0.00 58 1018.5
20260506161007 59 26 7.0 15.6 0.00 0.00 0.00 55 1018.6
20260506160510 59 12 7.0 12.2 0.00 0.00 0.00 59 1018.5
20260506160012 59 27 6.1 12.2 0.00 0.00 0.00 56 1018.2
20260506155508 59 46 5.2 9.6 0.00 0.00 0.00 57 1018.0
20260506155007 59 87 2.6 9.6 0.00 0.00 0.00 59 1017.9
20260506154531 58 19 4.3 11.3 0.00 0.00 0.00 58 1017.9
20260506154017 58 46 6.1 11.3 0.00 0.00 0.00 58 1017.8
20260506153509 58 75 5.2 11.3 0.00 0.00 0.00 60 1017.7
20260506153025 57 51 7.0 13.9 0.00 0.00 0.00 59 1017.6
20260506152509 57 72 7.8 13.9 0.00 0.00 0.00 60 1017.3
20260506152005 56 44 5.2 13.9 0.00 0.00 0.00 60 1017.3
20260506151524 56 30 7.8 13.0 0.00 0.00 0.00 60 1017.1
20260506151008 55 56 4.3 13.0 0.00 0.00 0.00 61 1017.0
20260506150509 55 40 7.8 17.4 0.00 0.00 0.00 60 1016.9
20260506150020 55 62 8.7 17.4 0.00 0.00 0.00 61 1017.1
20260506145507 55 58 7.8 14.8 0.00 0.00 0.00 62 1017.0
20260506145008 55 17 7.0 15.6 0.00 0.00 0.00 63 1017.1
20260506144522 54 50 6.1 15.6 0.00 0.00 0.00 63 1017.1
20260506144006 54 1 6.1 14.8 0.00 0.00 0.00 64 1017.1
20260506143512 54 29 6.1 13.0 0.00 0.00 0.00 64 1017.1
20260506143018 54 75 5.2 13.0 0.00 0.00 0.00 65 1017.1
20260506142511 53 63 6.1 14.8 0.00 0.00 0.00 67 1017.0
20260506142010 52 29 6.1 14.8 0.00 0.00 0.00 68 1017.0
20260506141516 52 30 8.7 14.8 0.00 0.00 0.00 69 1017.0
20260506141009 52 28 6.1 13.0 0.00 0.00 0.00 69 1017.0
20260506140511 51 15 6.1 16.5 0.00 0.00 0.00 70 1017.2
20260506140012 51 10 9.6 16.5 0.00 0.00 0.00 70 1017.2
20260506135510 51 47 3.5 13.0 0.00 0.00 0.00 72 1017.1
20260506135010 51 44 5.2 13.0 0.00 0.00 0.00 71 1016.9
20260506134524 51 27 4.3 13.0 0.00 0.00 0.00 73 1017.0
20260506134017 50 27 8.7 13.0 0.00 0.00 0.00 72 1017.2
20260506133508 50 15 7.0 13.0 0.00 0.00 0.00 73 1017.4
20260506133026 50 18 4.3 14.8 0.00 0.00 0.00 73 1017.1
20260506132510 50 33 8.7 14.8 0.00 0.00 0.00 74 1017.1
20260506132010 50 67 5.2 12.2 0.00 0.00 0.00 74 1017.1
20260506131524 50 11 7.0 12.2 0.00 0.00 0.00 74 1017.2
20260506131008 49 19 4.3 12.2 0.00 0.00 0.00 75 1017.2
20260506130513 49 23 6.1 13.0 0.00 0.00 0.00 75 1017.0
20260506130024 49 19 7.0 17.4 0.00 0.00 0.00 75 1016.8
20260506125508 49 21 7.0 17.4 0.00 0.00 0.00 75 1017.1
20260506125010 49 17 7.0 13.9 0.00 0.00 0.00 76 1017.0
20260506124524 49 44 7.8 16.5 0.00 0.00 0.00 76 1017.0
20260506124010 49 32 7.0 16.5 0.00 0.00 0.00 76 1017.0
20260506123509 49 16 6.1 15.6 0.00 0.00 0.00 76 1016.8
20260506123019 49 21 10.4 15.6 0.00 0.00 0.00 76 1017.0
20260506122510 49 22 8.7 13.9 0.00 0.00 0.00 75 1016.6
20260506122011 49 347 7.8 15.6 0.00 0.00 0.00 75 1016.7
20260506121517 49 292 9.6 15.6 0.00 0.00 0.00 75 1016.5
20260506121010 49 32 6.1 15.6 0.00 0.00 0.00 75 1016.3
20260506120514 49 47 4.3 14.8 0.00 0.00 0.00 75 1016.1
20260506120031 49 15 5.2 10.4 0.00 0.00 0.00 75 1016.3
20260506115510 49 39 3.5 13.0 0.00 0.00 0.00 75 1016.4
20260506115006 49 11 7.8 13.0 0.00 0.00 0.00 75 1016.1
20260506114514 49 25 1.7 10.4 0.00 0.00 0.00 74 1016.3
20260506114005 49 332 2.6 14.8 0.00 0.00 0.00 74 1016.4
20260506113507 49 49 7.8 14.8 0.00 0.00 0.00 74 1016.4
20260506113015 49 356 6.1 13.0 0.00 0.00 0.00 74 1016.3
20260506112503 49 19 7.8 13.0 0.00 0.00 0.00 74 1016.2
20260506112008 49 38 6.1 13.0 0.00 0.00 0.00 74 1016.2
20260506111509 49 29 6.1 12.2 0.00 0.00 0.00 74 1016.2
20260506111010 49 23 3.5 10.4 0.00 0.00 0.00 73 1016.1
20260506110507 49 25 4.3 10.4 0.00 0.00 0.00 73 1016.0
20260506110005 50 37 2.6 11.3 0.00 0.00 0.00 73 1015.8